Time,TemperatureF,DewpointF,PressureIn,WindDirection,WindDirectionDegrees,WindSpeedMPH,WindSpeedGustMPH,Humidity,HourlyPrecipIn,Conditions,Clouds,dailyrainin,SoftwareType,DateUTC
2013-06-17 00:00:00,68.0,64.0,29.85,North,32767,-999.0,0.0,87,0.00,,,0.00,Wunderground v.1.15,2013-06-17 04:00:00,
2013-06-17 00:05:00,68.0,64.0,29.85,North,32767,-999.0,0.0,87,0.00,,,0.00,Wunderground v.1.15,2013-06-17 04:05:00,
2013-06-17 00:10:00,68.0,64.0,29.85,North,32767,-999.0,0.0,87,0.00,,,0.00,Wunderground v.1.15,2013-06-17 04:10:00,
2013-06-17 00:15:00,68.0,64.0,29.85,North,32767,-999.0,0.0,87,0.00,,,0.00,Wunderground v.1.15,2013-06-17 04:15:00,
2013-06-17 00:20:00,67.9,63.9,29.85,North,32767,-999.0,0.0,87,0.00,,,0.00,Wunderground v.1.15,2013-06-17 04:20:00,
2013-06-17 00:25:00,67.8,63.8,29.86,North,32767,-999.0,0.0,87,0.00,,,0.00,Wunderground v.1.15,2013-06-17 04:25:00,
2013-06-17 00:30:00,67.8,63.8,29.85,North,32767,-999.0,0.0,87,0.00,,,0.00,Wunderground v.1.15,2013-06-17 04:30:00,
2013-06-17 00:35:00,67.7,63.7,29.85,North,32767,-999.0,0.0,87,0.00,,,0.00,Wunderground v.1.15,2013-06-17 04:35:00,
2013-06-17 00:40:00,67.6,63.6,29.85,North,32767,-999.0,0.0,87,0.00,,,0.00,Wunderground v.1.15,2013-06-17 04:40:00,
2013-06-17 00:45:00,67.6,63.6,29.85,North,32767,-999.0,0.0,87,0.00,,,0.00,Wunderground v.1.15,2013-06-17 04:45:00,
2013-06-17 00:50:00,67.6,63.9,29.86,North,32767,-999.0,0.0,88,0.00,,,0.00,Wunderground v.1.15,2013-06-17 04:50:00,
2013-06-17 00:55:00,67.6,63.9,29.86,North,32767,-999.0,0.0,88,0.00,,,0.00,Wunderground v.1.15,2013-06-17 04:55:00,
2013-06-17 01:00:00,67.5,63.8,29.86,North,32767,-999.0,0.0,88,0.00,,,0.00,Wunderground v.1.15,2013-06-17 05:00:00,
2013-06-17 01:10:00,67.4,63.7,29.85,North,32767,-999.0,0.0,88,0.00,,,0.00,Wunderground v.1.15,2013-06-17 05:10:00,
2013-06-17 01:15:00,67.2,63.5,29.85,North,32767,-999.0,0.0,88,0.00,,,0.00,Wunderground v.1.15,2013-06-17 05:15:00,
2013-06-17 01:20:00,67.1,63.4,29.85,North,32767,-999.0,0.0,88,0.00,,,0.00,Wunderground v.1.15,2013-06-17 05:20:00,
2013-06-17 01:30:00,67.0,63.3,29.85,North,32767,-999.0,0.0,88,0.00,,,0.00,Wunderground v.1.15,2013-06-17 05:30:00,
2013-06-17 01:35:00,66.9,63.2,29.85,North,32767,-999.0,0.0,88,0.00,,,0.00,Wunderground v.1.15,2013-06-17 05:35:00,
2013-06-17 01:45:00,66.8,63.1,29.85,North,32767,-999.0,0.0,88,0.00,,,0.00,Wunderground v.1.15,2013-06-17 05:45:00,
2013-06-17 01:50:00,66.7,63.4,29.85,North,32767,-999.0,0.0,89,0.00,,,0.00,Wunderground v.1.15,2013-06-17 05:50:00,
2013-06-17 02:00:00,66.6,63.3,29.85,North,32767,-999.0,0.0,89,0.00,,,0.00,Wunderground v.1.15,2013-06-17 06:00:00,
2013-06-17 02:11:00,66.7,63.4,29.85,North,32767,-999.0,0.0,89,0.00,,,0.00,Wunderground v.1.15,2013-06-17 06:11:00,
2013-06-17 02:20:00,66.5,63.2,29.85,North,32767,-999.0,0.0,89,0.00,,,0.00,Wunderground v.1.15,2013-06-17 06:20:00,
2013-06-17 02:25:00,66.3,63.0,29.85,North,32767,-999.0,0.0,89,0.00,,,0.00,Wunderground v.1.15,2013-06-17 06:25:00,
2013-06-17 02:35:00,65.9,62.9,29.85,North,32767,-999.0,0.0,90,0.00,,,0.00,Wunderground v.1.15,2013-06-17 06:35:00,
2013-06-17 02:45:00,65.8,63.1,29.85,North,32767,-999.0,0.0,91,0.00,,,0.00,Wunderground v.1.15,2013-06-17 06:45:00,
2013-06-17 02:50:00,65.8,63.1,29.86,North,32767,-999.0,0.0,91,0.00,,,0.00,Wunderground v.1.15,2013-06-17 06:50:00,
2013-06-17 03:00:00,65.9,63.2,29.86,North,32767,-999.0,0.0,91,0.00,,,0.00,Wunderground v.1.15,2013-06-17 07:00:00,
2013-06-17 03:10:00,65.9,63.2,29.85,North,32767,-999.0,0.0,91,0.00,,,0.00,Wunderground v.1.15,2013-06-17 07:10:00,
2013-06-17 03:20:00,65.9,63.2,29.86,North,32767,-999.0,0.0,91,0.00,,,0.00,Wunderground v.1.15,2013-06-17 07:20:00,
2013-06-17 03:25:00,66.0,63.3,29.86,North,32767,-999.0,0.0,91,0.00,,,0.00,Wunderground v.1.15,2013-06-17 07:25:00,
2013-06-17 03:30:00,66.1,63.4,29.86,North,32767,-999.0,0.0,91,0.00,,,0.00,Wunderground v.1.15,2013-06-17 07:30:00,
2013-06-17 03:40:00,66.1,63.1,29.86,North,32767,-999.0,0.0,90,0.00,,,0.00,Wunderground v.1.15,2013-06-17 07:40:00,
2013-06-17 03:50:00,66.1,63.4,29.86,North,32767,-999.0,0.0,91,0.00,,,0.00,Wunderground v.1.15,2013-06-17 07:50:00,
2013-06-17 04:00:00,66.1,63.1,29.86,North,32767,-999.0,0.0,90,0.00,,,0.00,Wunderground v.1.15,2013-06-17 08:00:00,
2013-06-17 04:10:00,65.7,63.0,29.86,North,32767,-999.0,0.0,91,0.00,,,0.00,Wunderground v.1.15,2013-06-17 08:10:00,
2013-06-17 04:20:00,65.4,63.0,29.87,North,32767,-999.0,0.0,92,0.00,,,0.00,Wunderground v.1.15,2013-06-17 08:20:00,
2013-06-17 04:25:00,65.3,62.9,29.87,North,32767,-999.0,0.0,92,0.00,,,0.00,Wunderground v.1.15,2013-06-17 08:25:00,
2013-06-17 04:35:00,65.3,62.9,29.86,North,32767,-999.0,0.0,92,0.00,,,0.00,Wunderground v.1.15,2013-06-17 08:35:00,
2013-06-17 04:45:00,65.2,63.1,29.86,North,32767,-999.0,0.0,93,0.00,,,0.00,Wunderground v.1.15,2013-06-17 08:45:00,
2013-06-17 04:55:00,65.2,63.1,29.87,North,32767,-999.0,0.0,93,0.00,,,0.00,Wunderground v.1.15,2013-06-17 08:55:00,
2013-06-17 05:00:00,65.2,62.8,29.87,North,32767,-999.0,0.0,92,0.00,,,0.00,Wunderground v.1.15,2013-06-17 09:00:00,
2013-06-17 05:10:00,65.1,63.0,29.87,North,32767,-999.0,0.0,93,0.00,,,0.00,Wunderground v.1.15,2013-06-17 09:10:00,
2013-06-17 05:20:00,65.0,62.9,29.87,North,32767,-999.0,0.0,93,0.00,,,0.00,Wunderground v.1.15,2013-06-17 09:20:00,
2013-06-17 05:25:00,65.0,62.9,29.87,North,32767,-999.0,0.0,93,0.00,,,0.00,Wunderground v.1.15,2013-06-17 09:25:00,
2013-06-17 05:30:00,65.1,63.0,29.88,North,32767,-999.0,0.0,93,0.00,,,0.00,Wunderground v.1.15,2013-06-17 09:30:00,
2013-06-17 05:35:00,65.2,63.1,29.88,North,32767,-999.0,0.0,93,0.00,,,0.00,Wunderground v.1.15,2013-06-17 09:35:00,
2013-06-17 05:40:00,65.2,63.1,29.88,North,32767,-999.0,0.0,93,0.00,,,0.00,Wunderground v.1.15,2013-06-17 09:40:00,
2013-06-17 05:45:00,65.2,63.1,29.88,North,32767,-999.0,0.0,93,0.00,,,0.00,Wunderground v.1.15,2013-06-17 09:45:00,
2013-06-17 05:55:00,65.2,63.1,29.88,North,32767,-999.0,0.0,93,0.00,,,0.00,Wunderground v.1.15,2013-06-17 09:55:00,
2013-06-17 06:01:00,65.3,63.2,29.88,North,32767,-999.0,0.0,93,0.00,,,0.00,Wunderground v.1.15,2013-06-17 10:01:00,
2013-06-17 06:10:00,65.5,63.4,29.88,North,32767,-999.0,0.0,93,0.00,,,0.00,Wunderground v.1.15,2013-06-17 10:10:00,
2013-06-17 06:15:00,65.6,63.5,29.88,North,32767,-999.0,0.0,93,0.00,,,0.00,Wunderground v.1.15,2013-06-17 10:15:00,
2013-06-17 06:25:00,65.8,63.4,29.88,North,32767,-999.0,0.0,92,0.00,,,0.00,Wunderground v.1.15,2013-06-17 10:25:00,
2013-06-17 06:35:00,65.9,63.8,29.89,North,32767,-999.0,0.0,93,0.00,,,0.00,Wunderground v.1.15,2013-06-17 10:35:00,
2013-06-17 06:45:00,66.1,63.7,29.89,North,32767,-999.0,0.0,92,0.00,,,0.00,Wunderground v.1.15,2013-06-17 10:45:00,
2013-06-17 06:55:00,66.2,63.8,29.89,North,32767,-999.0,0.0,92,0.00,,,0.00,Wunderground v.1.15,2013-06-17 10:55:00,
2013-06-17 07:00:00,66.3,63.9,29.89,North,32767,-999.0,0.0,92,0.00,,,0.00,Wunderground v.1.15,2013-06-17 11:00:00,
2013-06-17 07:10:00,66.3,63.9,29.90,North,32767,-999.0,0.0,92,0.00,,,0.00,Wunderground v.1.15,2013-06-17 11:10:00,
2013-06-17 07:15:00,66.4,64.0,29.90,North,32767,-999.0,0.0,92,0.00,,,0.00,Wunderground v.1.15,2013-06-17 11:15:00,
2013-06-17 07:25:00,66.5,64.1,29.89,North,32767,-999.0,0.0,92,0.00,,,0.00,Wunderground v.1.15,2013-06-17 11:25:00,
2013-06-17 07:35:00,66.6,64.2,29.90,North,32767,-999.0,0.0,92,0.00,,,0.00,Wunderground v.1.15,2013-06-17 11:35:00,
2013-06-17 07:45:00,66.7,64.3,29.90,SSW,207,0.0,0.0,92,0.00,,,0.00,Wunderground v.1.15,2013-06-17 11:45:00,
2013-06-17 07:55:00,67.0,64.3,29.90,South,188,0.0,0.0,91,0.00,,,0.00,Wunderground v.1.15,2013-06-17 11:55:00,
2013-06-17 08:00:00,67.1,64.4,29.90,South,188,0.0,0.0,91,0.00,,,0.00,Wunderground v.1.15,2013-06-17 12:00:00,
2013-06-17 08:10:00,67.3,64.6,29.90,SW,219,0.0,0.0,91,0.00,,,0.00,Wunderground v.1.15,2013-06-17 12:10:00,
2013-06-17 08:20:00,67.7,65.0,29.90,SW,219,0.0,0.0,91,0.00,,,0.00,Wunderground v.1.15,2013-06-17 12:20:00,
2013-06-17 08:30:00,68.0,64.6,29.90,WSW,257,0.0,0.0,89,0.00,,,0.00,Wunderground v.1.15,2013-06-17 12:30:00,
2013-06-17 08:35:00,68.3,64.9,29.90,West,275,0.0,0.0,89,0.00,,,0.00,Wunderground v.1.15,2013-06-17 12:35:00,
2013-06-17 08:45:00,68.9,65.2,29.90,NW,306,0.0,0.0,88,0.00,,,0.00,Wunderground v.1.15,2013-06-17 12:45:00,
2013-06-17 08:55:00,69.9,65.9,29.90,NW,323,0.0,0.0,87,0.00,,,0.00,Wunderground v.1.15,2013-06-17 12:55:00,
2013-06-17 09:00:00,70.5,66.1,29.89,NW,323,0.0,0.0,86,0.00,,,0.00,Wunderground v.1.15,2013-06-17 13:00:00,
2013-06-17 09:10:00,71.7,66.6,29.89,NW,323,0.0,0.0,84,0.00,,,0.00,Wunderground v.1.15,2013-06-17 13:10:00,
2013-06-17 09:15:00,72.1,67.0,29.90,WSW,258,0.0,0.0,84,0.00,,,0.00,Wunderground v.1.15,2013-06-17 13:15:00,
2013-06-17 09:25:00,72.6,66.8,29.90,WSW,258,0.0,0.0,82,0.00,,,0.00,Wunderground v.1.15,2013-06-17 13:25:00,
2013-06-17 09:30:00,72.9,67.1,29.90,ENE,71,0.0,0.0,82,0.00,,,0.00,Wunderground v.1.15,2013-06-17 13:30:00,
2013-06-17 09:35:00,73.2,67.7,29.90,NW,319,0.0,0.0,83,0.00,,,0.00,Wunderground v.1.15,2013-06-17 13:35:00,
2013-06-17 09:45:00,74.0,67.4,29.89,ESE,123,0.0,0.0,80,0.00,,,0.00,Wunderground v.1.15,2013-06-17 13:45:00,
2013-06-17 09:50:00,74.2,67.6,29.90,West,277,0.0,0.0,80,0.00,,,0.00,Wunderground v.1.15,2013-06-17 13:50:00,
2013-06-17 10:00:00,74.5,67.2,29.89,SSW,207,0.0,0.0,78,0.00,,,0.00,Wunderground v.1.15,2013-06-17 14:00:00,
2013-06-17 10:10:00,74.7,67.4,29.89,SW,232,0.0,0.0,78,0.00,,,0.00,Wunderground v.1.15,2013-06-17 14:10:00,
2013-06-17 10:20:00,75.1,67.8,29.88,WSW,257,0.0,0.0,78,0.00,,,0.00,Wunderground v.1.15,2013-06-17 14:20:00,
2013-06-17 10:30:00,75.2,67.1,29.88,ENE,77,0.0,0.0,76,0.00,,,0.00,Wunderground v.1.15,2013-06-17 14:30:00,
2013-06-17 10:35:00,75.5,68.2,29.88,NNW,342,0.0,0.0,78,0.00,,,0.00,Wunderground v.1.15,2013-06-17 14:35:00,
2013-06-17 10:40:00,75.8,67.3,29.87,West,268,0.0,0.0,75,0.00,,,0.00,Wunderground v.1.15,2013-06-17 14:40:00,
2013-06-17 10:50:00,76.4,69.4,29.87,WSW,250,0.0,0.0,79,0.00,,,0.00,Wunderground v.1.15,2013-06-17 14:50:00,
2013-06-17 10:55:00,76.6,68.8,29.87,SSW,209,0.0,0.0,77,0.00,,,0.00,Wunderground v.1.15,2013-06-17 14:55:00,
2013-06-17 11:00:00,76.8,67.9,29.87,NNE,12,0.0,0.0,74,0.00,,,0.00,Wunderground v.1.15,2013-06-17 15:00:00,
2013-06-17 11:10:00,77.1,68.2,29.87,West,269,0.0,0.0,74,0.00,,,0.00,Wunderground v.1.15,2013-06-17 15:10:00,
2013-06-17 11:15:00,77.7,69.5,29.87,West,269,0.0,0.0,76,0.00,,,0.00,Wunderground v.1.15,2013-06-17 15:15:00,
2013-06-17 11:25:00,77.9,68.5,29.87,North,5,0.0,0.0,73,0.00,,,0.00,Wunderground v.1.15,2013-06-17 15:25:00,
2013-06-17 11:35:00,77.4,68.5,29.87,NE,53,0.0,0.0,74,0.00,,,0.00,Wunderground v.1.15,2013-06-17 15:35:00,
2013-06-17 11:40:00,77.5,67.8,29.87,NW,315,0.0,0.0,72,0.00,,,0.00,Wunderground v.1.15,2013-06-17 15:40:00,
2013-06-17 11:50:00,77.9,67.7,29.88,NNE,26,0.0,0.0,71,0.00,,,0.00,Wunderground v.1.15,2013-06-17 15:50:00,
2013-06-17 12:00:00,78.2,68.4,29.87,WNW,286,0.0,0.0,72,0.00,,,0.00,Wunderground v.1.15,2013-06-17 16:00:00,
2013-06-17 12:10:00,78.7,68.5,29.87,North,5,0.0,0.0,71,0.00,,,0.00,Wunderground v.1.15,2013-06-17 16:10:00,
2013-06-17 12:20:00,79.5,68.9,29.87,NW,317,0.0,0.0,70,0.00,,,0.00,Wunderground v.1.15,2013-06-17 16:20:00,
2013-06-17 12:30:00,79.8,67.0,29.87,West,280,0.0,0.0,65,0.00,,,0.00,Wunderground v.1.15,2013-06-17 16:30:00,
2013-06-17 12:40:00,80.2,66.9,29.87,West,280,0.0,0.0,64,0.00,,,0.00,Wunderground v.1.15,2013-06-17 16:40:00,
2013-06-17 12:45:00,80.0,67.2,29.87,NW,313,0.0,0.0,65,0.00,,,0.00,Wunderground v.1.15,2013-06-17 16:45:00,
2013-06-17 12:55:00,80.0,64.9,29.87,NW,312,0.0,0.0,60,0.00,,,0.00,Wunderground v.1.15,2013-06-17 16:55:00,
2013-06-17 13:00:00,79.4,64.3,29.87,East,92,0.0,0.0,60,0.00,,,0.00,Wunderground v.1.15,2013-06-17 17:00:00,
2013-06-17 13:10:00,78.5,65.8,29.86,NW,321,0.0,0.0,65,0.00,,,0.00,Wunderground v.1.15,2013-06-17 17:10:00,
2013-06-17 13:15:00,78.1,66.2,29.86,NW,321,0.0,0.0,67,0.00,,,0.00,Wunderground v.1.15,2013-06-17 17:15:00,
2013-06-17 13:25:00,75.2,66.7,29.86,SSW,198,0.0,0.0,75,0.00,,,0.00,Wunderground v.1.15,2013-06-17 17:25:00,
2013-06-17 13:30:00,72.8,64.4,29.86,WSW,237,0.0,0.0,75,0.00,,,0.00,Wunderground v.1.15,2013-06-17 17:30:00,
2013-06-17 13:40:00,69.8,65.1,29.86,WSW,238,0.0,0.0,85,0.00,,,0.00,Wunderground v.1.15,2013-06-17 17:40:00,
2013-06-17 13:50:00,68.5,65.8,29.86,ESE,103,0.0,0.0,91,0.00,,,0.00,Wunderground v.1.15,2013-06-17 17:50:00,
2013-06-17 13:55:00,68.1,65.1,29.86,SSE,150,0.0,0.0,90,0.00,,,0.00,Wunderground v.1.15,2013-06-17 17:55:00,
2013-06-17 14:00:00,68.2,65.2,29.86,SSE,150,0.0,0.0,90,0.00,,,0.00,Wunderground v.1.15,2013-06-17 18:00:00,
2013-06-17 14:10:00,69.0,65.9,29.85,SSE,150,0.0,0.0,90,0.00,,,0.00,Wunderground v.1.15,2013-06-17 18:10:00,
2013-06-17 14:20:00,69.7,66.3,29.86,SSE,150,0.0,0.0,89,0.00,,,0.00,Wunderground v.1.15,2013-06-17 18:20:00,
2013-06-17 14:30:00,71.2,69.1,29.85,SW,231,0.0,0.0,93,0.00,,,0.00,Wunderground v.1.15,2013-06-17 18:30:00,
2013-06-17 14:40:00,73.1,69.3,29.85,WSW,237,0.0,0.0,88,0.00,,,0.00,Wunderground v.1.15,2013-06-17 18:40:00,
2013-06-17 14:50:00,74.3,70.5,29.85,WSW,237,0.0,0.0,88,0.00,,,0.00,Wunderground v.1.15,2013-06-17 18:50:00,
2013-06-17 14:55:00,75.2,70.4,29.84,WSW,237,0.0,0.0,85,0.00,,,0.00,Wunderground v.1.15,2013-06-17 18:55:00,
2013-06-17 15:00:00,76.3,71.5,29.84,WSW,237,0.0,0.0,85,0.00,,,0.00,Wunderground v.1.15,2013-06-17 19:00:00,
2013-06-17 15:10:00,77.7,70.7,29.85,West,261,0.0,0.0,79,0.00,,,0.00,Wunderground v.1.15,2013-06-17 19:10:00,
2013-06-17 15:20:00,78.8,71.0,29.84,West,261,0.0,0.0,77,0.00,,,0.00,Wunderground v.1.15,2013-06-17 19:20:00,
2013-06-17 15:30:00,78.3,70.5,29.84,West,260,0.0,0.0,77,0.00,,,0.00,Wunderground v.1.15,2013-06-17 19:30:00,
2013-06-17 15:40:00,77.3,68.8,29.84,WSW,253,0.0,0.0,75,0.00,,,0.00,Wunderground v.1.15,2013-06-17 19:40:00,
2013-06-17 15:50:00,76.4,67.9,29.84,WSW,255,0.0,0.0,75,0.00,,,0.00,Wunderground v.1.15,2013-06-17 19:50:00,
2013-06-17 16:00:00,76.8,68.7,29.84,WSW,255,0.0,0.0,76,0.00,,,0.00,Wunderground v.1.15,2013-06-17 20:00:00,
2013-06-17 16:10:00,77.8,68.8,29.84,WSW,255,0.0,0.0,74,0.00,,,0.00,Wunderground v.1.15,2013-06-17 20:10:00,
2013-06-17 16:15:00,78.3,69.3,29.83,WSW,255,0.0,0.0,74,0.00,,,0.00,Wunderground v.1.15,2013-06-17 20:15:00,
2013-06-17 16:25:00,79.4,70.0,29.83,WSW,255,0.0,0.0,73,0.00,,,0.00,Wunderground v.1.15,2013-06-17 20:25:00,
2013-06-17 16:30:00,79.8,68.7,29.83,WSW,255,0.0,0.0,69,0.00,,,0.00,Wunderground v.1.15,2013-06-17 20:30:00,
2013-06-17 16:40:00,80.5,69.0,29.82,WSW,255,0.0,0.0,68,0.00,,,0.00,Wunderground v.1.15,2013-06-17 20:40:00,
2013-06-17 16:50:00,81.1,65.4,29.82,NE,44,0.0,0.0,59,0.00,,,0.00,Wunderground v.1.15,2013-06-17 20:50:00,
2013-06-17 17:00:00,81.2,66.5,29.82,North,360,0.0,0.0,61,0.00,,,0.00,Wunderground v.1.15,2013-06-17 21:00:00,
2013-06-17 17:10:00,80.7,66.5,29.82,ENE,78,0.0,0.0,62,0.00,,,0.00,Wunderground v.1.15,2013-06-17 21:10:00,
2013-06-17 17:15:00,80.3,63.7,29.82,ENE,76,0.0,0.0,57,0.00,,,0.00,Wunderground v.1.15,2013-06-17 21:15:00,
2013-06-17 17:20:00,79.9,62.8,29.82,ENE,66,0.0,0.0,56,0.00,,,0.00,Wunderground v.1.15,2013-06-17 21:20:00,
2013-06-17 17:30:00,80.5,62.8,29.82,East,95,0.0,0.0,55,0.00,,,0.00,Wunderground v.1.15,2013-06-17 21:30:00,
2013-06-17 17:35:00,81.1,63.9,29.82,ENE,57,0.0,0.0,56,0.00,,,0.00,Wunderground v.1.15,2013-06-17 21:35:00,
2013-06-17 17:45:00,81.2,60.8,29.83,East,84,0.0,0.0,50,0.00,,,0.00,Wunderground v.1.15,2013-06-17 21:45:00,
2013-06-17 17:50:00,81.0,60.0,29.83,NW,317,0.0,0.0,49,0.00,,,0.00,Wunderground v.1.15,2013-06-17 21:50:00,
2013-06-17 18:00:00,81.5,61.1,29.83,ESE,111,0.0,0.0,50,0.00,,,0.00,Wunderground v.1.15,2013-06-17 22:00:00,
2013-06-17 18:10:00,81.8,60.8,29.84,East,101,0.0,0.0,49,0.00,,,0.00,Wunderground v.1.15,2013-06-17 22:10:00,
2013-06-17 18:20:00,82.5,61.4,29.83,East,101,0.0,0.0,49,0.00,,,0.00,Wunderground v.1.15,2013-06-17 22:20:00,
2013-06-17 18:25:00,82.5,62.0,29.84,East,101,0.0,0.0,50,0.00,,,0.00,Wunderground v.1.15,2013-06-17 22:25:00,
2013-06-17 18:35:00,81.4,59.8,29.84,East,101,0.0,0.0,48,0.00,,,0.00,Wunderground v.1.15,2013-06-17 22:35:00,
2013-06-17 18:40:00,80.6,57.9,29.84,ESE,104,0.0,0.0,46,0.00,,,0.00,Wunderground v.1.15,2013-06-17 22:40:00,
2013-06-17 18:50:00,79.5,59.8,29.84,ESE,104,0.0,0.0,51,0.00,,,0.00,Wunderground v.1.15,2013-06-17 22:50:00,
2013-06-17 18:55:00,79.0,58.2,29.84,ESE,113,0.0,0.0,49,0.00,,,0.00,Wunderground v.1.15,2013-06-17 22:55:00,
2013-06-17 19:00:00,78.6,58.4,29.84,ESE,113,0.0,0.0,50,0.00,,,0.00,Wunderground v.1.15,2013-06-17 23:00:00,
2013-06-17 19:10:00,77.9,58.3,29.84,ESE,115,0.0,0.0,51,0.00,,,0.00,Wunderground v.1.15,2013-06-17 23:10:00,
2013-06-17 19:15:00,77.5,57.4,29.84,ESE,115,0.0,0.0,50,0.00,,,0.00,Wunderground v.1.15,2013-06-17 23:15:00,
2013-06-17 19:25:00,77.3,57.2,29.85,ESE,114,0.0,0.0,50,0.00,,,0.00,Wunderground v.1.15,2013-06-17 23:25:00,
2013-06-17 19:30:00,77.2,57.7,29.85,ESE,113,0.0,0.0,51,0.00,,,0.00,Wunderground v.1.15,2013-06-17 23:30:00,
2013-06-17 19:40:00,77.0,57.5,29.85,ESE,114,0.0,0.0,51,0.00,,,0.00,Wunderground v.1.15,2013-06-17 23:40:00,
2013-06-17 19:45:00,77.0,57.5,29.85,ESE,113,0.0,0.0,51,0.00,,,0.00,Wunderground v.1.15,2013-06-17 23:45:00,
2013-06-17 19:55:00,77.0,58.6,29.85,ESE,114,0.0,0.0,53,0.00,,,0.00,Wunderground v.1.15,2013-06-17 23:55:00,
2013-06-17 20:00:00,76.7,59.3,29.85,ESE,114,0.0,0.0,55,0.00,,,0.00,Wunderground v.1.15,2013-06-18 00:00:00,
2013-06-17 20:10:00,76.4,58.5,29.86,North,32767,-999.0,0.0,54,0.00,,,0.00,Wunderground v.1.15,2013-06-18 00:10:00,
2013-06-17 20:20:00,76.4,58.0,29.86,North,32767,-999.0,0.0,53,0.00,,,0.00,Wunderground v.1.15,2013-06-18 00:20:00,
2013-06-17 20:30:00,76.3,57.4,29.86,North,32767,-999.0,0.0,52,0.00,,,0.00,Wunderground v.1.15,2013-06-18 00:30:00,
2013-06-17 20:35:00,76.4,57.5,29.86,North,32767,-999.0,0.0,52,0.00,,,0.00,Wunderground v.1.15,2013-06-18 00:35:00,
2013-06-17 20:40:00,76.4,57.5,29.86,North,32767,-999.0,0.0,52,0.00,,,0.00,Wunderground v.1.15,2013-06-18 00:40:00,
2013-06-17 20:45:00,76.3,57.4,29.86,North,32767,-999.0,0.0,52,0.00,,,0.00,Wunderground v.1.15,2013-06-18 00:45:00,
2013-06-17 20:55:00,76.1,57.7,29.86,North,32767,-999.0,0.0,53,0.00,,,0.00,Wunderground v.1.15,2013-06-18 00:55:00,
2013-06-17 21:00:00,75.8,57.4,29.86,North,32767,-999.0,0.0,53,0.00,,,0.00,Wunderground v.1.15,2013-06-18 01:00:00,
2013-06-17 21:10:00,75.3,57.5,29.86,North,32767,-999.0,0.0,54,0.00,,,0.00,Wunderground v.1.15,2013-06-18 01:10:00,
2013-06-17 21:15:00,74.9,57.6,29.86,North,32767,-999.0,0.0,55,0.00,,,0.00,Wunderground v.1.15,2013-06-18 01:15:00,
2013-06-17 21:20:00,74.7,57.5,29.86,North,32767,-999.0,0.0,55,0.00,,,0.00,Wunderground v.1.15,2013-06-18 01:20:00,
2013-06-17 21:30:00,74.5,57.3,29.87,North,32767,-999.0,0.0,55,0.00,,,0.00,Wunderground v.1.15,2013-06-18 01:30:00,
2013-06-17 21:35:00,74.5,57.8,29.87,North,32767,-999.0,0.0,56,0.00,,,0.00,Wunderground v.1.15,2013-06-18 01:35:00,
2013-06-17 21:45:00,74.5,57.3,29.87,North,32767,-999.0,0.0,55,0.00,,,0.00,Wunderground v.1.15,2013-06-18 01:45:00,
2013-06-17 21:55:00,74.4,57.2,29.88,North,32767,-999.0,0.0,55,0.00,,,0.00,Wunderground v.1.15,2013-06-18 01:55:00,
2013-06-17 22:00:00,74.3,57.6,29.88,North,32767,-999.0,0.0,56,0.00,,,0.00,Wunderground v.1.15,2013-06-18 02:00:00,
2013-06-17 22:10:00,74.1,57.4,29.88,North,32767,-999.0,0.0,56,0.00,,,0.00,Wunderground v.1.15,2013-06-18 02:10:00,
2013-06-17 22:20:00,74.3,57.1,29.89,North,32767,-999.0,0.0,55,0.00,,,0.00,Wunderground v.1.15,2013-06-18 02:20:00,
2013-06-17 22:25:00,74.4,57.2,29.88,North,32767,-999.0,0.0,55,0.00,,,0.00,Wunderground v.1.15,2013-06-18 02:25:00,
2013-06-17 22:30:00,74.4,57.2,29.89,North,32767,-999.0,0.0,55,0.00,,,0.00,Wunderground v.1.15,2013-06-18 02:30:00,
2013-06-17 22:40:00,74.2,57.0,29.88,North,32767,-999.0,0.0,55,0.00,,,0.00,Wunderground v.1.15,2013-06-18 02:40:00,
2013-06-17 22:45:00,73.7,57.5,29.88,North,32767,-999.0,0.0,57,0.00,,,0.00,Wunderground v.1.15,2013-06-18 02:45:00,
2013-06-17 22:50:00,73.2,57.1,29.89,North,32767,-999.0,0.0,57,0.00,,,0.00,Wunderground v.1.15,2013-06-18 02:50:00,
2013-06-17 23:00:00,72.6,57.0,29.89,North,32767,-999.0,0.0,58,0.00,,,0.00,Wunderground v.1.15,2013-06-18 03:00:00,
2013-06-17 23:10:00,72.0,57.4,29.88,North,32767,-999.0,0.0,60,0.00,,,0.00,Wunderground v.1.15,2013-06-18 03:10:00,
2013-06-17 23:20:00,71.3,58.5,29.88,North,32767,-999.0,0.0,64,0.00,,,0.00,Wunderground v.1.15,2013-06-18 03:20:00,
2013-06-17 23:25:00,71.0,58.2,29.88,North,32767,-999.0,0.0,64,0.00,,,0.00,Wunderground v.1.15,2013-06-18 03:25:00,
2013-06-17 23:35:00,70.6,58.3,29.88,North,32767,-999.0,0.0,65,0.00,,,0.00,Wunderground v.1.15,2013-06-18 03:35:00,
2013-06-17 23:45:00,70.2,59.1,29.89,North,32767,-999.0,0.0,68,0.00,,,0.00,Wunderground v.1.15,2013-06-18 03:45:00,
2013-06-17 23:50:00,70.0,59.8,29.89,North,32767,-999.0,0.0,70,0.00,,,0.00,Wunderground v.1.15,2013-06-18 03:50:00,